Regional Weather Roundup
Issued by NWS Wakefield, VA

Home | Current Version | Previous Version | Graphics & Text | Print | Product List | Glossary On
Versions: 1 2 3 4 5 6 7 8 9 10 11 12 13 14 15 16 17 18 19 20 21 22 23 24 25 26 27 28 29 30 31 32 33 34 35 36 37 38 39 40 41 42 43 44 45 46 47 48 49 50
000
ASUS41 KAKQ 060114
RWRAKQ

REGIONAL WEATHER ROUNDUP
NATIONAL WEATHER SERVICE WAKEFIELD VA
900 PM EDT TUE MAY 05 2015

Note: "fair" indicates few or no clouds below 12,000 feet with no
significant weather and/or obstructions to visibility. * = Denotes
station may not report precipitation (e.g., rain,snow,etc.),
thunder or fog.

VAZ042-051-052>054-056-060200-
NORTHERN VIRGINIA

CITY           SKY/WX    TMP DP  RH WIND       PRES   REMARKS
WASH NATIONAL  MOCLDY    70  64  81 S6        30.23R
DULLES         MOCLDY    67  63  89 S5        30.24R
FORT BELVOIR   CLOUDY    66  62  86 VRB5      30.24R
QUANTICO       CLOUDY    66  61  84 SW5       30.25R
FREDERICKSBRG* DRIZZLE   68  68 100 CALM      30.25R
STAFFORD*      CLOUDY    65  32  29 CALM      30.29R HAZE
WARRENTON      CLOUDY    67  66  96 SE7       30.23S
CULPEPER*      MOCLDY    66  63  91 CALM      30.24R
MANASSAS*      CLEAR     64  64 100 CALM      30.24R
LEESBURG*      PTCLDY    70  63  78 S5        30.24R
WINCHESTER     PTCLDY    70  55  60 CALM      30.22S
FRONT ROYAL*   FAIR      64  59  82 SW3       30.21S
LURAY*         FAIR      64  64 100 CALM      30.24R
$$

VAZ048-049-060>072-079>083-060200-
CENTRAL AND SOUTH CENTRAL VIRGINIA

CITY           SKY/WX    TMP DP  RH WIND       PRES   REMARKS
RICHMOND       MOCLDY    73  61  65 NE8       30.26R
CHESTERFIELD*  CLOUDY    75  54  46 N7        30.26R
PETERSBURG*    PTCLDY    67  59  76 CALM      30.24R
HANOVER        LGT RAIN  67  65  93 W6        30.27R
TAPPAHANNOCK*  MOCLDY    70  60  70 NW5       30.27R
QUINTON*       CLOUDY    73  61  64 N7        30.26R
CHARLOTTSVILLE CLOUDY    69  64  84 SE6       30.24R
GORDONSVILLE*  CLOUDY    65  64  97 CALM      30.24R
ORANGE*        CLOUDY    68  64  88 CALM      30.26S
LOUISA*        LGT RAIN  66  64  94 S3        30.24R
BUMPASS*       CLOUDY    66  64  93 NW5       30.25S
FARMVILLE*     CLOUDY    75  60  58 N5        30.22R
CREWE*         MOCLDY    71  58  63 S3        30.23R
FORT PICKETT*  FAIR      70  57  64 S10       30.24R
CHASE CITY*    FAIR      74  61  64 CALM      30.23R
CLARKSVILLE*   FAIR      66  59  77 S3        30.23R
SOUTH HILL*    CLEAR     68  57  68 CALM      30.29R
LAWRENCEVILLE* FAIR      71  57  61 CALM      30.23R
EMPORIA*       CLEAR     68  55  64 CALM      30.26R
$$

VAZ088>098-060200-
SOUTHEAST VIRGINIA

CITY           SKY/WX    TMP DP  RH WIND       PRES   REMARKS
NORFOLK        PTCLDY    72  46  39 S13       30.25R
VIRGINIA BEACH MOCLDY    75  49  39 S12       30.25R
NORFOLK NAVAL  MOCLDY    77  47  34 S10       30.26R
WEST POINT*    CLOUDY    72  58  60 CALM      30.25R
SALUDA*        MOCLDY    73  58  57 S3        30.23R
NEWPORT NEWS   CLEAR     78  52  40 S13       30.24R
LANGLEY AFB    CLEAR     73  53  49 S12       30.23R
FORT EUSTIS    CLEAR     74  54  50 S7        30.23R
WILLIAMSBURG*  CLEAR     75  59  57 S3        30.25R
HR EXEC AP*    FAIR      72  50  46 S6        30.27R
FRANKLIN*      CLEAR     69  53  56 S7        30.26R
WAKEFIELD      CLEAR     72  55  55 S3        30.24R
$$

VAZ020-022-025-037-045-060200-
WEST CENTRAL AND SOUTHWEST VIRGINIA

CITY           SKY/WX    TMP DP  RH WIND       PRES   REMARKS
STAUNTON*      MOCLDY    66  60  82 CALM      30.26R
WAYNESBORO*    CLOUDY    67  60  78 CALM      30.25S
HOT SPRINGS VA DRIZZLE   64  48  56 NW8       30.34S
LYNCHBURG      MOCLDY    72  58  61 CALM      30.24R
DANVILLE       CLEAR     72  57  59 S3        30.23R
SOUTH BOSTON*  FAIR      71  58  62 S3        30.22S
MARTINSVILLE   CLEAR     66  59  78 CALM      30.26R
ROANOKE        PTCLDY    73  54  51 CALM      30.25R
BLACKSBURG     CLOUDY    66  54  66 CALM      30.31R
DUBLIN*        PTCLDY    71  54  53 S3        30.29R
MARION*        CLOUDY    69  53  56 CALM      30.31S
HILLSVILLE*    PTCLDY    66  53  61 SW6       30.30S
RICHLANDS*     FAIR      71  50  47 CALM      30.29R HAZE
WISE*          LGT RAIN  70  46  43 CALM      30.30S
ABINGDON*      CLOUDY    73  54  51 CALM      30.26S
$$

MDZ021>025-VAZ099-100-060200-
SOUTHERN MARYLAND AND THE DELMARVA PENINSULA

CITY           SKY/WX    TMP DP  RH WIND       PRES   REMARKS
PATUXENT RIVER LGT RAIN  71  57  61 W16       30.24R
BAY BRIDGE APT   N/A    N/A N/A N/A S7        30.22R
LEONARDTOWN    CLOUDY    64  59  82 NW5       30.28R
DOVER          PTCLDY    75  60  60 SW12      30.17R
GEORGETOWN     MOCLDY    72  58  61 S10       30.22R
EASTON         RAIN      70  66  88 SW9       30.26R
CAMBRIDGE      MOCLDY    73  59  60 CALM      30.23R
SALISBURY      MOCLDY    70  57  63 S6        30.22R
OCEAN CITY     CLEAR     67  54  63 SW9       30.24R
WALLOPS ISLAND CLEAR     63  56  78 S10       30.24R
ACCOMACK*      CLEAR     68  59  73 S7        30.24R
$$

NCZ012>017-030>032-060200-
NORTH CENTRAL AND EASTERN NORTH CAROLINA

CITY           SKY/WX    TMP DP  RH WIND       PRES   REMARKS
ROANOKE RAPIDS FAIR      70  54  56 S8        30.25R
RALEIGH        PTCLDY    72  54  53 S5        30.25R
ELIZABETH CITY MOCLDY    68  52  56 S10       30.28R
AHOSKIE*       CLEAR     67  53  59 SE3       30.27R
EDENTON*       MOCLDY    68  54  61 S8        30.28R
CURRITUCK*     MOCLDY    69  51  51 S5        30.29R
KILL DEVIL HLS MOCLDY    68  54  61 S6        30.28S
MANTEO         MOCLDY    67  59  76 S9        30.30R
CAPE HATTERAS  PTCLDY    66  56  70 S7        30.30F
TARBORO*       FAIR      71  49  45 S6        30.27R
GOLDSBORO      PTCLDY    69  51  51 SE1       30.26R
WASHINGTON     MOCLDY    68  52  56 S5        30.29S
GREENVILLE     MOCLDY    70  50  49 S9        30.29R
NEW BERN       MOCLDY    62  52  69 CALM      30.30S
WILMINGTON     MOCLDY    64  56  75 N3        30.28S
$$

VAZ048-060200-
ELSEWHERE

CITY           SKY/WX    TMP DP  RH WIND       PRES   REMARKS
HARRISBURG PA  CLOUDY    73  58  59 CALM      30.19R
BALTIMORE      MOCLDY    67  64  90 CALM      30.21R
ANNAPOLIS      CLOUDY    68  63  84 S3        30.21R
ANDREWS AFB    NOT AVBL
PHILADELPHIA   MOCLDY    80  55  42 W7        30.19R
HENDERSON NC   CLEAR     70  54  56 S5        30.25R
GREENSBORO     CLEAR     72  55  55 S6        30.24R
ROCKY MOUNT    CLEAR     70  49  47 S7        30.26R
$$

VAZ100-060200-
MARINE

STATION/POSITION TIME  TEMP    WIND        PRES    WAVE   SWELL
                       AIR SEA DIR/SP/G            HT/PER HT/PER
                 (UTC) (F)     (DEG/KT/KT) (MB)    (FT/S) (FT/S)
BRANDYWINE LGT   0000   73 57  210/ 13/ 15 1022.2R
CAPE MAY NJ      0012   66 63  170/ 10/ 12 1022.0R
LEWES DE         0000   77 60  230/  5/  8 1022.2R
15NM E FENWICK I 0050   58 53              1023.4R   3/ 4
OCEAN-CITY-INLET 0000   57 55  210/ 11/ 13 1023.2R
WACHAPREAGUE VA  0000   68 71  210/ 10/ 15 1023.7R
THOMAS POINT MD  0100   67 63  200/ 12/ 13 1023.8R
GOOSES REEF MD   0100   66 62                N/A     1/ 2
COVE POINT MD    0000   66     200/  7/  8 1023.2R
SOLOMONS ISLAND  0012      63                N/A
BISHOPS HEAD MD  0000   72 70  180/ 12/ 14 1022.4R
PINEY POINT MD   0000          330/ 22/ 24   N/A
CAMBRIDGE MD     0012   75 63  180/  3/  5 1022.6R
LEWISETTA VA     0000   75 68              1023.4R
RAPPAHANNOCK LGT 0000          170/ 12/ 13 1023.7R
YORK RVR RNG VA  0012   72     210/ 14/ 15 1022.6R
YORKTOWN VA      0012   76 63  200/  7/  9 1023.0R
JAMESTOWN VA     0100   72 67  190/  4/  4 1023.1R
DOMINION TERM VA 0000   74     200/ 11/ 12 1023.6R
KIPTOPEKE VA     0000      67  170/ 10/ 11   N/A
CHES BAY BRIDGE  0000   75 61  180/ 17/ 20 1023.2R
CAPE HENRY VA    0000   75     190/  9/ 15 1022.7R
CHESAPEAKE LGHT  0000   67     190/ 24/ 25 1024.1R
WILLOUBY STN VA  0000   75     190/ 17/ 19 1024.2R
S CRANEY ISL VA  0000          180/ 12/ 15 1023.8R
CAPE HENRY BUOY  0028      60                N/A     3/ 4
1ST LANDING BUOY 0100      62                N/A     2/ 4
CAPE CHARLES BUO 0026      59                N/A     3/ 4   2/11
OFFSHORE WE BUOY 0011      55                N/A     3/ 4   2/11
64NM E OF VA BCH 0050   63 61  210/ 10/ 12 1025.2R   2/11   2/11
DUCK PIER NC     0012   70 53  180/ 12/ 16 1024.2R
44056 DUCK FRF   0011      57                N/A     2/11   2/11
OREGON INLET NC  0012   70 73  190/ 12/ 13 1026.0R
HATTERAS NC      0012   70 69  160/  8/ 10 1025.6R
DIAMOND SHLS NC  0050   71 76  160/ 14/ 17 1025.9S   3/11   2/11
CAPE LOOKOUT NC  0100   68     150/  5/  5 1025.6R
$$


USA.gov is the U.S. government's official web portal to all federal, state and local government web resources and services.